Weather History for KPBI - December, 2013

Change the Weather History Date:

Sunday, December 15, 2013

  Actual Average Record
Temperature  
Mean Temperature 77 °F 68 °F  
Max Temperature 82 °F 76 °F 87 °F (1951)
Min Temperature 71 °F 60 °F 35 °F (2010)
Degree Days  
Heating Degree Days 0 2  
Month to date heating degree days 0 20  
Since 1 July heating degree days 4 32  
Cooling Degree Days 12 5  
Month to date cooling degree days 147 84  
Year to date cooling degree days 4348 3950  
Growing Degree Days 27 (Base 50)    
Moisture  
Dew Point 70 °F    
Average Humidity 84    
Maximum Humidity 93    
Minimum Humidity 74    
Precipitation  
Precipitation 0.01 in 0.10 in 3.10 in (2009)
Month to date precipitation 4.18 1.59  
Year to date precipitation 64.82 60.54  
Snow  
Snow 0.00 in - - ()
Month to date snowfall 0.0  
Since 1 July snowfall 0.0  
Snow Depth 0.00 in    
Sea Level Pressure  
Sea Level Pressure 29.98 in    
Wind  
Wind Speed 9 mph (WSW)    
Max Wind Speed 25 mph    
Max Gust Speed 31 mph    
Visibility 10 miles    
Events Rain    
T = Trace of Precipitation, MM = Missing Value Source: NWS Daily Summary

Daily Weather History Graph

Daily Weather History Graph

Search for Another Location

Airport or City:

Trip Planner

Search our weather history database for the weather conditions in past years. The results will help you decide how hot, cold, wet, or windy it might be!

Date:

Astronomy

Dec. 15, 2013 Rise Set
Actual Time 7:01 AM EST 5:29 PM EST
Civil Twilight 6:36 AM EST 5:55 PM EST
Nautical Twilight 6:07 AM EST 6:24 PM EST
Astronomical Twilight 5:38 AM EST 6:52 PM EST
Moon 4:27 PM EST (12/15) 5:22 AM EST (12/15)
Length of Visible Light 11h 19m
Length of Day
10h 28m
Waxing Gibbous, 97% of the Moon is Illuminated
Dec 15
Waxing Gibbous
Dec 17
Full
Dec 25
Last Quarter
Jan 1
New
Jan 7
First Quarter

Hourly Weather History & Observations

Time (EST) Temp. Heat Index Dew Point Humidity Pressure Visibility Wind Dir Wind Speed Gust Speed Precip Events Conditions
12:53 AM 73.9 °F - 70.0 °F 87% 29.99 in 10.0 mi South 4.6 mph - N/A   Partly Cloudy
1:53 AM 73.9 °F - 70.0 °F 87% 29.97 in 10.0 mi SSW 5.8 mph - N/A   Partly Cloudy
2:53 AM 75.0 °F - 70.0 °F 84% 29.96 in 10.0 mi SSW 8.1 mph - N/A   Partly Cloudy
3:53 AM 75.0 °F - 70.0 °F 84% 29.95 in 10.0 mi SSW 6.9 mph - N/A   Partly Cloudy
4:53 AM 73.9 °F - 70.0 °F 87% 29.94 in 10.0 mi SSW 6.9 mph - N/A   Partly Cloudy
5:53 AM 73.9 °F - 71.1 °F 91% 29.95 in 10.0 mi South 8.1 mph - N/A   Scattered Clouds
6:53 AM 73.9 °F - 71.1 °F 91% 29.96 in 10.0 mi SSW 6.9 mph - N/A   Mostly Cloudy
7:53 AM 75.0 °F - 71.1 °F 87% 29.98 in 10.0 mi South 5.8 mph - N/A   Mostly Cloudy
8:53 AM 77.0 °F - 72.0 °F 84% 30.01 in 10.0 mi SSW 11.5 mph - N/A   Mostly Cloudy
9:53 AM 79.0 °F - 72.0 °F 79% 30.01 in 10.0 mi SSW 9.2 mph - N/A   Mostly Cloudy
10:34 AM 80.6 °F 84.6 °F 71.6 °F 74% 30.01 in 10.0 mi SW 11.5 mph 19.6 mph N/A   Mostly Cloudy
10:53 AM 80.1 °F 83.8 °F 72.0 °F 76% 30.00 in 10.0 mi SSW 13.8 mph - N/A   Mostly Cloudy
11:53 AM 81.0 °F 85.2 °F 72.0 °F 74% 29.99 in 10.0 mi SW 13.8 mph 24.2 mph N/A   Mostly Cloudy
12:53 PM 81.0 °F 85.2 °F 72.0 °F 74% 29.94 in 10.0 mi SSW 11.5 mph - N/A   Mostly Cloudy
1:53 PM 80.1 °F 83.8 °F 72.0 °F 76% 29.94 in 4.0 mi WSW 12.7 mph - 0.01 in Rain Rain
2:29 PM 78.8 °F - 68.0 °F 69% 29.94 in 10.0 mi West 13.8 mph - 0.00 in   Mostly Cloudy
2:53 PM 80.1 °F 82.9 °F 69.1 °F 69% 29.94 in 10.0 mi West 16.1 mph - 0.00 in   Mostly Cloudy
3:53 PM 79.0 °F - 69.1 °F 72% 29.94 in 10.0 mi West 12.7 mph - N/A   Mostly Cloudy
4:53 PM 79.0 °F - 69.1 °F 72% 29.96 in 10.0 mi West 10.4 mph - N/A   Mostly Cloudy
5:53 PM 75.0 °F - 68.0 °F 79% 29.97 in 10.0 mi WNW 4.6 mph - N/A   Mostly Cloudy
6:33 PM 75.2 °F - 69.8 °F 83% 29.99 in 10.0 mi North 8.1 mph - N/A   Mostly Cloudy
6:53 PM 73.9 °F - 68.0 °F 82% 30.00 in 10.0 mi North 8.1 mph - N/A   Mostly Cloudy
7:53 PM 73.0 °F - 66.9 °F 81% 30.03 in 10.0 mi North 8.1 mph - N/A   Mostly Cloudy
8:53 PM 73.0 °F - 66.9 °F 81% 30.04 in 10.0 mi North 5.8 mph - N/A   Mostly Cloudy
9:53 PM 72.0 °F - 66.9 °F 84% 30.06 in 10.0 mi NW 6.9 mph - N/A   Mostly Cloudy
10:53 PM 72.0 °F - 66.0 °F 81% 30.06 in 10.0 mi NNW 6.9 mph - N/A   Mostly Cloudy
11:53 PM 71.1 °F - 64.9 °F 81% 30.06 in 10.0 mi NNW 5.8 mph - N/A   Mostly Cloudy